TimeCST,TemperatureF,Dew PointF,Humidity,Sea Level PressureIn,VisibilityMPH,Wind Direction,Wind SpeedMPH,Gust SpeedMPH,PrecipitationIn,Events,Conditions,WindDirDegrees,DateUTC
12:29 AM,6.8,-0.4,72,30.26,10.0,NW,10.4,-,N/A,,Clear,310,1998-12-31 06:29:00
12:50 AM,6.8,-0.4,72,30.26,10.0,NW,15.0,-,N/A,,Clear,320,1998-12-31 06:50:00
1:12 AM,5.0,-0.4,78,30.28,10.0,NW,13.8,-,N/A,,Clear,310,1998-12-31 07:12:00
1:29 AM,5.0,-0.4,78,30.28,10.0,NW,8.1,-,N/A,,Clear,310,1998-12-31 07:29:00
1:50 AM,3.2,-0.4,85,30.27,10.0,NW,8.1,-,N/A,,Clear,310,1998-12-31 07:50:00
2:09 AM,3.2,-2.2,78,30.28,10.0,WNW,8.1,-,N/A,,Clear,300,1998-12-31 08:09:00
2:32 AM,1.4,-2.2,85,30.30,10.0,NW,10.4,-,N/A,,Clear,310,1998-12-31 08:32:00
2:54 AM,1.4,-2.2,85,30.30,10.0,WNW,6.9,-,N/A,,Clear,290,1998-12-31 08:54:00
3:29 AM,1.4,-4.0,78,30.31,10.0,WNW,4.6,-,N/A,,Clear,300,1998-12-31 09:29:00
3:49 AM,1.4,-5.8,72,30.31,10.0,Calm,Calm,-,N/A,,Clear,0,1998-12-31 09:49:00
4:11 AM,1.4,-4.0,78,30.29,10.0,Calm,Calm,-,N/A,,Clear,0,1998-12-31 10:11:00
4:34 AM,1.4,-2.2,85,30.30,10.0,SW,8.1,-,N/A,,Clear,230,1998-12-31 10:34:00
4:49 AM,-0.4,-5.8,78,30.29,10.0,WSW,5.8,-,N/A,,Clear,240,1998-12-31 10:49:00
5:12 AM,1.4,-5.8,72,30.29,10.0,WNW,8.1,-,N/A,,Clear,290,1998-12-31 11:12:00
5:33 AM,1.4,-2.2,85,30.30,10.0,West,8.1,-,N/A,,Clear,280,1998-12-31 11:33:00
6:31 AM,5.0,3.2,92,30.31,10.0,WSW,5.8,-,N/A,,Overcast,250,1998-12-31 12:31:00
6:49 AM,6.8,3.2,85,30.30,10.0,West,5.8,-,N/A,,Overcast,270,1998-12-31 12:49:00
7:11 AM,8.6,3.2,79,30.30,10.0,West,3.5,-,N/A,,Overcast,280,1998-12-31 13:11:00
7:29 AM,8.6,3.2,79,30.30,10.0,West,3.5,-,N/A,,Mostly Cloudy,270,1998-12-31 13:29:00
7:52 AM,8.6,6.8,92,30.30,10.0,Calm,Calm,-,N/A,,Mostly Cloudy,0,1998-12-31 13:52:00
8:10 AM,10.4,6.8,85,30.30,10.0,WSW,3.5,-,N/A,,Overcast,250,1998-12-31 14:10:00
8:33 AM,10.4,6.8,85,30.30,10.0,West,5.8,-,N/A,,Overcast,260,1998-12-31 14:33:00
8:49 AM,12.2,6.8,79,30.29,10.0,West,5.8,-,N/A,,Overcast,270,1998-12-31 14:49:00
9:09 AM,12.2,5.0,73,30.29,10.0,West,4.6,-,N/A,,Overcast,270,1998-12-31 15:09:00
9:31 AM,12.2,6.8,79,30.30,10.0,West,6.9,-,N/A,,Mostly Cloudy,260,1998-12-31 15:31:00
9:49 AM,14.0,6.8,73,30.29,10.0,West,5.8,-,N/A,,Scattered Clouds,260,1998-12-31 15:49:00
10:49 AM,17.6,6.8,63,30.27,10.0,Calm,Calm,-,N/A,,Clear,0,1998-12-31 16:49:00
11:11 AM,17.6,10.4,73,30.27,10.0,Calm,Calm,-,N/A,,Clear,0,1998-12-31 17:11:00
12:09 PM,19.4,8.6,63,30.24,10.0,South,5.8,-,N/A,,Clear,190,1998-12-31 18:09:00
12:30 PM,21.2,10.4,63,30.24,10.0,SW,5.8,-,N/A,,Clear,220,1998-12-31 18:30:00
12:49 PM,21.2,10.4,63,30.23,10.0,SW,4.6,-,N/A,,Clear,220,1998-12-31 18:49:00
1:30 PM,23.0,12.2,63,30.21,10.0,SSW,6.9,-,N/A,,Clear,210,1998-12-31 19:30:00
2:30 PM,24.8,12.2,59,30.19,10.0,South,3.5,-,N/A,,Scattered Clouds,190,1998-12-31 20:30:00
2:49 PM,24.8,12.2,59,30.19,10.0,South,4.6,-,N/A,,Scattered Clouds,190,1998-12-31 20:49:00
3:49 PM,26.6,14.0,59,30.17,10.0,SE,6.9,-,N/A,,Scattered Clouds,130,1998-12-31 21:49:00
4:09 PM,26.6,12.2,55,30.17,10.0,ESE,8.1,-,N/A,,Scattered Clouds,120,1998-12-31 22:09:00
4:29 PM,26.6,12.2,55,30.16,10.0,SE,6.9,-,N/A,,Scattered Clouds,140,1998-12-31 22:29:00
5:10 PM,24.8,12.2,59,30.14,10.0,SE,5.8,-,N/A,,Mostly Cloudy,140,1998-12-31 23:10:00
5:29 PM,24.8,10.4,54,30.13,10.0,SE,6.9,-,N/A,,Scattered Clouds,130,1998-12-31 23:29:00
6:10 PM,21.2,10.4,63,30.12,10.0,ESE,6.9,-,N/A,,Clear,120,1999-01-01 00:10:00
6:31 PM,21.2,10.4,63,30.11,10.0,East,4.6,-,N/A,,Clear,100,1999-01-01 00:31:00
6:51 PM,21.2,10.4,63,30.11,10.0,ESE,6.9,-,N/A,,Clear,120,1999-01-01 00:51:00
7:10 PM,19.4,10.4,68,30.11,10.0,ESE,8.1,-,N/A,,Clear,110,1999-01-01 01:10:00
8:31 PM,19.4,10.4,68,30.13,10.0,SE,8.1,-,N/A,,Mostly Cloudy,140,1999-01-01 02:31:00
8:50 PM,19.4,10.4,68,30.14,10.0,SE,6.9,-,N/A,,Mostly Cloudy,140,1999-01-01 02:50:00
9:11 PM,19.4,10.4,68,30.14,10.0,SE,6.9,-,N/A,,Mostly Cloudy,140,1999-01-01 03:11:00
9:30 PM,19.4,10.4,68,30.14,10.0,ESE,5.8,-,N/A,,Mostly Cloudy,110,1999-01-01 03:30:00
9:53 PM,17.6,10.4,73,30.14,10.0,ESE,5.8,-,N/A,,Mostly Cloudy,110,1999-01-01 03:53:00
10:14 PM,17.6,12.2,79,30.14,10.0,ESE,4.6,-,N/A,,Overcast,110,1999-01-01 04:14:00
10:30 PM,19.4,10.4,68,30.14,10.0,East,5.8,-,N/A,,Overcast,100,1999-01-01 04:30:00
10:51 PM,19.4,12.2,74,30.14,10.0,ESE,5.8,-,N/A,,Overcast,110,1999-01-01 04:51:00
11:11 PM,19.4,10.4,68,30.14,10.0,ESE,6.9,-,N/A,,Overcast,110,1999-01-01 05:11:00
11:30 PM,19.4,12.2,74,30.14,10.0,ESE,6.9,-,N/A,,Overcast,110,1999-01-01 05:30:00
11:51 PM,19.4,10.4,68,30.14,10.0,East,5.8,-,N/A,,Overcast,100,1999-01-01 05:51:00